Simultaneous Nadir Overpasses (SNOs) Predictions

Prediction of SNOs between GOES-16 and NPP Satellite Orbit:

Table of predicted SNOs for the next 14.0 days since TLE Epoch: 3/30/2017
Index Date Time (GOES-16) GOES-16 Lat,Lon NPP Lat,Lon Distance(km) Time Diff (sec)
1 04/01/2017 19:23:23 0.00, -89.49 -0.10, -89.93 49.47 80
2 04/02/2017 19:07:18 0.00, -89.50 0.90, -85.39 467.15 80
3 04/04/2017 07:29:07 -0.00, -89.51 0.28, -90.67 132.51 80
4 04/05/2017 07:07:43 -0.00, -89.51 -0.78, -86.15 384.12 80
5 04/06/2017 19:29:40 0.00, -89.51 -0.43, -91.45 220.27 80
6 04/07/2017 19:13:35 0.00, -89.52 0.57, -86.91 297.05 80
7 04/09/2017 07:35:23 -0.00, -89.55 0.61, -92.19 301.02 80
8 04/10/2017 07:14:00 -0.00, -89.56 -0.45, -87.67 216.41 80
9 04/11/2017 19:35:56 0.00, -89.57 -0.75, -92.97 387.30 80
10 04/12/2017 19:19:52 0.00, -89.58 0.25, -88.44 130.58 80




NCC Satellite Simultaneous Nadir Overpasses (SNOs) Prediction Service
